Flag for Bosnia-Herzegovina Weather past 2 weeks in Sarajevo, Bosnia-Herzegovina

Now
52 °F

Light rain. Passing clouds.


Feels Like: 52 °F
Forecast: 47 / 56 °F
Wind: 1 mph from North

Location: Sarajevo / Butmir

Current Time: May 26, 2015 at 6:41:00 AM

Latest Report: May 26, 2015 at 6:00 AM


Visibility: 5 mi

Pressure: 29.83 "Hg

Humidity: 94%

Dew point: 50 °F

Location of SarajevoLocation

Historic Weather in Sarajevo — Graph

°F

Sarajevo temperature yesterday

Maximum temperature yesterday: 59 °F (at 3:00 PM)
Minimum temperature yesterday: 52 °F (at 12:00 AM)
Average temperature yesterday: 54 °F

Past Weeks' High & Low Weather Summary

 TemperatureHumidityPressure
High84 °F (May 19, 2:00 PM)100% (May 11, 5:00 AM)30.39 "Hg (May 11, 5:00 AM)
Low39 °F (May 12, 5:00 AM)24% (May 13, 1:00 PM)29.80 "Hg (May 14, 5:30 PM)
Average62 °F70%30.01 "Hg
* Reported May 11 5:00 AM — May 26 5:30 AM, Sarajevo, Weather by CustomWeather, © 2015

Note: Actual official high and low records may vary slightly from our data, if they occured in-between our weather recording intervals... More about our weather records

Advertising

Sarajevo weather history for previous 24 hours

 ConditionsComfort  
Time TempWeatherWind HumidityBarometerVisibility
5:30 AM
Tue, May 26
50 °FLight rain. Passing clouds.1 mph100%29.83 "Hg5 mi
5:00 AM50 °FPartly cloudy.2 mph100%29.83 "HgN/A
4:00 AM50 °FPassing clouds.2 mph100%29.83 "HgN/A
3:00 AM50 °FPassing clouds.1 mph100%29.83 "HgN/A
2:00 AM50 °FPassing clouds.1 mph100%29.83 "HgN/A
1:00 AM50 °FLight rain. Passing clouds.No wind100%29.86 "HgN/A
12:00 AM52 °FPassing clouds.1 mph94%29.86 "HgN/A
11:00 PM
Mon, May 25
52 °FPassing clouds.2 mph100%29.86 "HgN/A
10:30 PM52 °FPartly cloudy.1 mph100%29.86 "HgN/A
10:00 PM52 °FPassing clouds.1 mph100%29.89 "HgN/A
9:30 PM52 °FPassing clouds.1 mph100%29.89 "HgN/A
9:00 PM54 °FPartly sunny.1 mph94%29.86 "HgN/A
8:30 PM54 °FPartly sunny.1 mph94%29.86 "HgN/A
8:00 PM54 °FBroken clouds.1 mph100%29.86 "HgN/A
7:30 PM54 °FPartly sunny.1 mph100%29.86 "HgN/A
7:00 PM54 °FPartly sunny.1 mph100%29.86 "HgN/A
6:30 PM54 °FLight rain. Partly sunny.2 mph94%29.86 "HgN/A
6:00 PM54 °FLight rain. Broken clouds.1 mph94%29.89 "HgN/A
5:30 PM55 °FBroken clouds.No wind88%29.89 "HgN/A
5:00 PM55 °FLight rain. Broken clouds.2 mph82%29.89 "HgN/A
4:30 PM55 °FLight rain. Broken clouds.5 mph77%29.89 "HgN/A
4:00 PM55 °FLight rain. Broken clouds.3 mph77%29.89 "HgN/A
3:30 PM57 °FLight rain. Broken clouds.6 mph72%29.89 "HgN/A
3:00 PM59 °FBroken clouds.8 mph72%29.89 "HgN/A
2:30 PM57 °FLight rain. Broken clouds.6 mph82%29.89 "HgN/A
2:00 PM57 °FLight rain. Broken clouds.6 mph82%29.89 "HgN/A
1:30 PM57 °FLight rain. Broken clouds.6 mph88%29.89 "HgN/A
1:00 PM57 °FLight rain. Broken clouds.7 mph77%29.89 "HgN/A
12:30 PM55 °FLight rain. Broken clouds.3 mph82%29.89 "HgN/A
12:00 PM57 °FLight rain. Broken clouds.1 mph82%29.89 "HgN/A
11:30 AM55 °FLight rain. Broken clouds.2 mph94%29.89 "HgN/A
11:00 AM55 °FLight rain. Broken clouds.1 mph88%29.92 "HgN/A
10:30 AM55 °FLight rain. Broken clouds.2 mph94%29.89 "HgN/A
10:00 AM55 °FLight rain. Broken clouds.2 mph88%29.89 "Hg5 mi
9:30 AM55 °FLight rain. Broken clouds.2 mph88%29.92 "Hg4 mi
9:00 AM54 °FLight rain. Broken clouds.2 mph100%29.92 "Hg5 mi
8:30 AM54 °FLight rain. Broken clouds.2 mph100%29.92 "Hg5 mi
8:00 AM54 °FLight rain. More clouds than sun.2 mph100%29.89 "Hg5 mi
7:30 AM54 °FLight rain. Broken clouds.1 mph100%29.89 "Hg4 mi
7:00 AM52 °FLight rain. Fog.1 mph100%29.89 "Hg2 mi
6:30 AM52 °FFog.1 mph100%29.92 "Hg2 mi
6:00 AM52 °FLight rain. Fog.1 mph100%29.92 "Hg2 mi
Weather by CustomWeather, © 2015

See weather overviewHow to use our weather pages